"Pseudo-MPEC" for XAafbXA

Created 2026 Aug 15 20:35:33 UT using Find_Orb

Click here for an explanation of pseudo-MPECs

 
 Astrometry: 
     XAafbXA*KB2026 08 14.64448 21 01 56.22 +05 32 03.1    ~8EKZ 20.3 GXNEOCPN94
     XAafbXA KB2026 08 14.65643 21 01 42.90 +05 34 31.4    ~8EKZ 20.6 GXNEOCPN94
     XAafbXA KB2026 08 14.66837 21 01 29.61 +05 36 59.1    ~8EKZ 20.3 GXNEOCPN94
     XAafbXA KC2026 08 14.89970220 57 12.38 +06 25 58.7    ~8EM5 19.8 GXNEOCPL01
     XAafbXA KC2026 08 14.90244920 57 09.17 +06 26 34.5    ~8EM5 19.9 GXNEOCPL01
     XAafbXA KC2026 08 14.90519720 57 05.92 +06 27 09.7    ~8EM5 20.0 GXNEOCPL01
     XAafbXA KC2026 08 14.90796920 57 02.71 +06 27 45.6    ~8EM5 19.9 GXNEOCPL01
     XAafbXA KC2026 08 14.91061720 56 59.58 +06 28 20.2    ~8EM5 20.0 GXNEOCPL01
     XAafbXA 1C2026 08 14.93887020 56 26.416+06 34 16.00   ~8EN5 20.0 GXNEOCP033
     XAafbXA 1C2026 08 14.93953020 56 25.638+06 34 24.50   ~8EN5 20.1 GXNEOCP033
     XAafbXA 1C2026 08 14.94019020 56 24.857+06 34 33.20   ~8EN5 19.9 GXNEOCP033
     XAafbXA 1C2026 08 14.94085020 56 24.086+06 34 41.60   ~8EN5 20.4 GXNEOCP033
     XAafbXA KC2026 08 14.94554120 56 18.52 +06 35 52.0    ~8F0Z 20.7 GVNEOCPK51
     XAafbXA KC2026 08 14.96102420 56 00.16 +06 39 13.7    ~8F0Z 21.1 GVNEOCPK51
     XAafbXA KC2026 08 14.97644020 55 41.82 +06 42 34.5    ~8F0Z 19.8 GVNEOCPK51
     XAafbXA KC2026 08 14.98416820 55 32.62 +06 44 15.9    ~8F0Z 20.3 GVNEOCPK51
     XAafbXA KC2026 08 14.99190720 55 23.43 +06 45 57.7    ~8F0Z 19.9 GVNEOCPK51
     XAafbXA KB2026 08 15.12006220 52 58.967+07 14 25.00   ~8F3o 20.3 GXNEOCPW62
     XAafbXA KB2026 08 15.12963020 52 47.263+07 16 33.15   ~8F3o 20.2 GXNEOCPW62

Station data:
(033) Karl Schwarzschild Observatory, Tautenburg  (N50.980139 E11.711240)
   Germany.  Observer B. Stecklum. 1.34-m f/3 Schmidt + CCD.
(K51) Osservatorio del Celado, Castello Tesino  (N46.029480 E11.657890)
   Italy.  Observers G. Favero, R. Furgoni. Measurer R. Furgoni. 0.80-m f/4
   reflector + CCD.
(L01) Višnjan Observatory, Tičan  (N45.290897 E13.749300)  Croatia.
   Observers K. Korlević, L. Poropat. Measurer K. Korlevic. 1.0-m f/2.9
   reflector + CCD.
(N94) Altay Astronomical Observatory  (N47.588446 E88.727920)  China.
   Observers X. Liao, D. Xu, X. Gao, M. Zhang, S.-Q. Jiang, X. Liu, J. An,
   W.-J. Zhou, Z.-S. Yang, G.-Y. Sun. Measurers X. Liao, M. Zhang, W.-J.
   Zhou, Z.-S. Yang, G.-Y. Sun. 1.00-m f/2.5 reflector + CMO.
(W62) Comet Hunter Observatory2, New Ringgold  (N40.745185 W75.862390)
   US/Pennsylvania.  Observer J. Maikner. 0.30-m f/3.8 Riccardi-Honders + CCD.

Orbital elements:  XAafbXA
   Perihelion 2026 Oct 27.908531 +/- 0.162 TT = 21:48:17.0 (JD 2461341.408531)
Epoch 2026 Aug 15.0 TT = JDT 2461267.5   Earth MOID: 0.0411      AutoNEOCP
M 284.027494211 +/- 0.28            (J2000 ecliptic)
n   1.027926067 +/- 0.00158         Peri.  134.492430 +/- 0.037
a   0.972362338 +/- 0.000994        Node   315.499909 +/- 0.021
e   0.46829509 +/- 0.00203          Incl.   11.735436 +/- 0.10
P   0.959/350.213d         H 25.35  G  0.15   U  8.4
q 0.517009823 +/- 0.0015    Q 1.427714853 +/- 0.00337
From 19 observations 2026 Aug. 14-15 (11.6 hr); mean residual 0".31
Residuals in arcseconds: 
260814 N94  .41-  .58+    260814 L01  .32+  .17+    260814 K51  .21-  .45-    
260814 N94  .30-  .22+    260814 033  .11-  .05+    260814 K51  .08-  .06-    
260814 N94  .80+  .86-    260814 033  .10-  .04-    260814 K51  .53+  .50+    
260814 L01  .17-  .00     260814 033  .14-  .08+    260815 W62  .14-  .15+    
260814 L01  .08+  .25+    260814 033  .02-  .10-    260815 W62  .20+  .13-    
260814 L01  .23-  .13-    260814 K51  .38-  .05-    
260814 L01  .52+  .12-    260814 K51  .19-  .05-    

Ephemerides (geocentric):
Date (UTC) HH   RA             Dec           delta  r     elong  mag " sig PA
---- --------  ------------   ------------  ------ ------ -----  --- --------
2026 08 15 21  20 36 58.528   +10 14 01.97  .05605 1.0622 151.2 20.4 3.08 136
2026 08 15 22  20 36 01.592   +10 24 26.75  .05586 1.0619 150.9 20.4 3.34 136
2026 08 15 23  20 35 04.207   +10 34 55.09  .05567 1.0616 150.6 20.4 3.62 135
2026 08 16 00  20 34 06.370   +10 45 26.95  .05548 1.0613 150.3 20.4 3.91 134
2026 08 16 01  20 33 08.077   +10 56 02.33  .05529 1.0610 150.0 20.4 4.22 134
2026 08 16 02  20 32 09.325   +11 06 41.21  .05511 1.0607 149.7 20.4 4.54 133
2026 08 16 03  20 31 10.111   +11 17 23.57  .05492 1.0603 149.4 20.4 4.88 133
2026 08 16 04  20 30 10.431   +11 28 09.38  .05474 1.0600 149.1 20.4 5.24 132
2026 08 16 05  20 29 10.283   +11 38 58.62  .05456 1.0597 148.8 20.4 5.61 132
2026 08 16 06  20 28 09.663   +11 49 51.27  .05438 1.0594 148.5 20.4 5.99 132
2026 08 16 07  20 27 08.569   +12 00 47.31  .05420 1.0591 148.2 20.4 6.40 131
2026 08 16 08  20 26 06.997   +12 11 46.70  .05403 1.0588 147.9 20.4 6.81 131
2026 08 16 09  20 25 04.943   +12 22 49.41  .05385 1.0585 147.6 20.4 7.25 131
2026 08 16 10  20 24 02.406   +12 33 55.42  .05368 1.0582 147.3 20.5 7.70 130
2026 08 16 11  20 22 59.382   +12 45 04.69  .05351 1.0579 147.0 20.5 8.17 130
2026 08 16 12  20 21 55.868   +12 56 17.19  .05334 1.0576 146.7 20.5 8.66 130
2026 08 16 13  20 20 51.861   +13 07 32.89  .05317 1.0573 146.4 20.5 9.16 130
2026 08 16 14  20 19 47.359   +13 18 51.73  .05300 1.0570 146.0 20.5 9.68 129
2026 08 16 15  20 18 42.358   +13 30 13.69  .05284 1.0567 145.7 20.5 10.2 129
2026 08 16 16  20 17 36.855   +13 41 38.72  .05268 1.0564 145.4 20.5 10.8 129
2026 08 16 17  20 16 30.849   +13 53 06.77  .05252 1.0560 145.1 20.5 11.4 129
2026 08 16 18  20 15 24.335   +14 04 37.81  .05236 1.0557 144.7 20.5 12.0 129
2026 08 16 19  20 14 17.312   +14 16 11.78  .05220 1.0554 144.4 20.5 12.6 128
2026 08 16 20  20 13 09.777   +14 27 48.64  .05204 1.0551 144.0 20.5 13.2 128
2026 08 16 21  20 12 01.728   +14 39 28.33  .05189 1.0548 143.7 20.5 13.8 128
2026 08 16 22  20 10 53.161   +14 51 10.81  .05174 1.0545 143.4 20.5 14.5 128
2026 08 16 23  20 09 44.074   +15 02 56.00  .05159 1.0542 143.0 20.5 15.2 128
2026 08 17 00  20 08 34.466   +15 14 43.86  .05144 1.0539 142.7 20.5 15.9 128
2026 08 17 01  20 07 24.334   +15 26 34.33  .05129 1.0536 142.3 20.5 16.6 127
2026 08 17 02  20 06 13.675   +15 38 27.34  .05115 1.0533 142.0 20.5 17.4 127
2026 08 17 03  20 05 02.488   +15 50 22.83  .05101 1.0530 141.6 20.5 18.2 127
2026 08 17 04  20 03 50.770   +16 02 20.74  .05087 1.0527 141.3 20.5 19.0 127
2026 08 17 05  20 02 38.519   +16 14 20.99  .05073 1.0523 140.9 20.5 19.8 127
2026 08 17 06  20 01 25.734   +16 26 23.51  .05059 1.0520 140.6 20.5 20.6 127
2026 08 17 07  20 00 12.413   +16 38 28.24  .05046 1.0517 140.2 20.5 21.4 126
2026 08 17 08  19 58 58.554   +16 50 35.10  .05032 1.0514 139.8 20.5 22.3 126
2026 08 17 09  19 57 44.156   +17 02 44.00  .05019 1.0511 139.5 20.5 23.2 126
2026 08 17 10  19 56 29.216   +17 14 54.87  .05006 1.0508 139.1 20.5 24.1 126
2026 08 17 11  19 55 13.734   +17 27 07.64  .04994 1.0505 138.7 20.5 25.0 126
2026 08 17 12  19 53 57.709   +17 39 22.20  .04981 1.0502 138.4 20.5 26.0 126
2026 08 17 13  19 52 41.138   +17 51 38.49  .04969 1.0499 138.0 20.5 27.0 126
2026 08 17 14  19 51 24.022   +18 03 56.41  .04957 1.0495 137.6 20.5 28.0 125
2026 08 17 15  19 50 06.359   +18 16 15.86  .04945 1.0492 137.2 20.5 29.0 125
2026 08 17 16  19 48 48.148   +18 28 36.77  .04933 1.0489 136.9 20.5 30.0 125
2026 08 17 17  19 47 29.388   +18 40 59.03  .04922 1.0486 136.5 20.5 31.1 125
2026 08 17 18  19 46 10.080   +18 53 22.54  .04911 1.0483 136.1 20.5 32.1 125
2026 08 17 19  19 44 50.223   +19 05 47.21  .04900 1.0480 135.7 20.5 33.2 125
2026 08 17 20  19 43 29.815   +19 18 12.93  .04889 1.0477 135.3 20.6 34.4 125